Overview Statistics Trail Chart Weather Telemetry Raw packets
 

This is the latest recevied weather packets stored in our database for station/object KQ4LLM. If no packets are shown the sender has not sent any weather packets the latest 10 day(s).

<< 45 46 47 48 49 50 51 >>
Time Temp. Humidity Pressure Rain* Wind** Luminosity Snow
1788375910 35° C 49% - 0 mm - - -
1788375606 35° C 49% - 0 mm - - -
1788375302 35° C 47% - 0 mm - - -
1788374997 35° C 48% - 0 mm - - -
1788374692 35° C 48% - 0 mm - - -
1788374387 35° C 49% - 0 mm - - -
1788374083 35° C 51% - 0 mm - - -
1788373779 34.44° C 51% - 0 mm - - -
1788373475 33.89° C 52% - 0 mm - - -
1788373171 33.89° C 51% - 0 mm - - -
1788372867 32.78° C 56% - 0 mm - - -
1788372566 32.22° C 56% - 0 mm - - -
1788372262 32.22° C 59% - 0 mm - - -
1788371957 32.78° C 59% - 0 mm - - -
1788371652 32.78° C 55% - 0 mm - - -
1788371348 32.78° C 54% - 0 mm - - -
1788371045 33.33° C 53% - 0 mm - - -
1788370740 33.89° C 53% - 0 mm - - -
1788370439 33.89° C 52% - 0 mm - - -
1788370135 33.33° C 53% - 0 mm - - -
1788369834 32.78° C 55% - 0 mm - - -
1788369529 32.78° C 57% - 0 mm - - -
1788369224 32.78° C 54% - 0 mm - - -
1788368921 33.33° C 53% - 0 mm - - -
1788368616 33.89° C 52% - 0 mm - - -

* Rain latest hour (hover to see other rain measurements)
** Current wind speed in m/s (hover to see current wind gust speed)